GW0762 Weather Reports


Display with metric or nautical units.
time (UTC)temp
F
wind
direction
speed
MPH
gust
MPH
rain 1hr
in
rain 24hr
in
rain mn
in
humidity
%
barometer
mb
20260504110118 42 0 0.0 1.0 0.00 0.00 0.00 90 1013.2
20260504100106 42 0 0.0 0.0 0.00 0.00 0.00 89 1013.2
20260504090123 42 0 0.0 0.0 0.00 0.00 0.00 88 1013.8
20260504081559 44 0 0.0 1.0 0.00 0.00 0.00 88 1013.9
20260504060103 49 0 0.0 0.0 0.00 0.00 0.00 84 1014.7
20260504050107 49 0 0.0 0.0 0.00 0.00 0.00 82 1015.3
20260504044603 49 0 0.0 1.0 0.00 0.00 0.00 82 1015.3
20260504043056 49 0 0.0 0.0 0.00 0.00 0.00 81 1015.5
20260504041556 49 0 0.0 0.0 0.00 0.00 0.00 80 1015.4
20260504040107 50 0 0.0 1.0 0.00 0.00 0.00 79 1015.7
20260504034605 50 0 0.0 0.0 0.00 0.00 0.00 79 1015.3
20260504033114 50 0 0.0 0.0 0.00 0.00 0.00 78 1015.3
20260504031600 50 0 0.0 1.0 0.00 0.00 0.00 76 1015.3
20260504030056 50 0 0.0 0.0 0.00 0.00 0.00 75 1015.4
20260504024605 50 0 0.0 0.0 0.00 0.00 0.00 73 1015.4
20260504023057 51 0 0.0 3.0 0.00 0.00 0.00 73 1015.2
20260504021602 51 0 0.0 2.0 0.00 0.00 0.00 71 1015.2
20260504020057 51 0 0.0 2.0 0.00 0.00 0.00 71 1014.9
20260504014558 51 0 0.0 0.0 0.00 0.00 0.00 70 1014.5
20260504013057 51 0 0.0 0.0 0.00 0.00 0.00 69 1014.7
20260504011557 52 0 0.0 0.0 0.00 0.00 0.00 68 1014.6
20260504010105 52 0 0.0 0.0 0.00 0.00 0.00 66 1014.7
20260504004602 53 0 0.0 0.0 0.00 0.00 0.00 65 1014.7
20260504003100 54 0 0.0 0.0 0.00 0.00 0.00 64 1014.7
20260504001614 55 0 0.0 0.0 0.00 0.00 0.00 62 1014.7
20260504000100 56 0 0.0 0.0 0.00 0.00 0.00 57 1014.8
20260503234559 58 0 0.0 1.0 0.00 0.00 0.00 53 1014.5
20260503233059 60 252 0.0 2.0 0.00 0.00 0.00 53 1014.5
20260503231559 62 243 0.0 3.0 0.00 0.00 0.00 49 1014.9
20260503230101 63 0 1.0 8.0 0.00 0.00 0.00 37 1015.1
20260503224558 63 0 1.0 8.0 0.00 0.00 0.00 38 1014.9
20260503223101 64 0 2.0 8.0 0.00 0.00 0.00 35 1015.3
20260503221559 64 329 2.0 8.0 0.00 0.00 0.00 34 1015.2
20260503220111 65 360 1.0 8.0 0.00 0.00 0.00 33 1015.2
20260503214559 65 355 3.0 15.0 0.00 0.00 0.00 33 1015.2
20260503213059 65 360 4.0 10.0 0.00 0.00 0.00 34 1015.5
20260503211610 65 327 2.0 9.0 0.00 0.00 0.00 31 1015.4
20260503210058 65 202 1.0 4.0 0.00 0.00 0.00 33 1015.6
20260503204607 64 360 2.0 10.0 0.00 0.00 0.00 33 1015.7
20260503203059 64 317 4.0 8.0 0.00 0.00 0.00 30 1015.9
20260503201602 64 19 1.0 6.0 0.00 0.00 0.00 39 1016.4
20260503200100 64 326 3.0 9.0 0.00 0.00 0.00 32 1016.5
20260503194600 63 360 1.0 5.0 0.00 0.00 0.00 32 1016.7
20260503193120 63 322 1.0 6.0 0.00 0.00 0.00 38 1017.0
20260503191602 63 360 2.0 11.0 0.00 0.00 0.00 33 1017.4
20260503190059 62 344 1.0 12.0 0.00 0.00 0.00 36 1017.7
20260503184558 62 360 2.0 8.0 0.00 0.00 0.00 36 1017.9
20260503183104 62 360 3.0 8.0 0.00 0.00 0.00 38 1018.2
20260503181623 60 0 1.0 6.0 0.00 0.00 0.00 36 1018.4
20260503180134 61 360 3.0 8.0 0.00 0.00 0.00 40 1018.7
20260503174559 60 360 1.0 9.0 0.00 0.00 0.00 38 1019.1
20260503173102 60 360 6.0 13.0 0.00 0.00 0.00 41 1019.3
20260503170104 60 360 0.0 4.0 0.00 0.00 0.00 42 1019.6
20260503150108 55 360 3.0 8.0 0.00 0.00 0.00 42 1020.9